Easton, MD

4:32 AM EDT on September 20, 2019 (GMT -0400)
Easton / Newnam

Weather History for KESN - July, 2019

Change the Weather History Date:

Monday, July 15, 2019

  Actual Average Record
Temperature  
Mean Temperature 79 °F -  
Max Temperature 87 °F 88 °F 97 °F (1954)
Min Temperature 71 °F 66 °F 58 °F (1971)
Cooling Degree Days 14    
Growing Degree Days 29 (Base 50)    
Moisture  
Dew Point 65 °F    
Average Humidity 67    
Maximum Humidity 87    
Minimum Humidity 33    
Precipitation  
Precipitation 0.00 in - - ()
Sea Level Pressure  
Sea Level Pressure 30.10 in    
Wind  
Wind Speed 1 mph (NNE)    
Max Wind Speed 7 mph    
Max Gust Speed -    
Visibility 10 miles    
Events      
Averages and records for this station are not official NWS values.
T = Trace of Precipitation, MM = Missing Value Source: NWS Daily Summary

Daily Weather History Graph

Daily Weather History Graph

Search for Another Location

Airport or City:

Astronomy

Jul. 15, 2019 Rise Set
Actual Time 5:51 AM EDT 8:28 PM EDT
Civil Twilight 5:20 AM EDT 8:59 PM EDT
Nautical Twilight 4:41 AM EDT 9:38 PM EDT
Astronomical Twilight 3:58 AM EDT 10:21 PM EDT
Moon 7:44 PM EDT (7/15) 4:37 AM EDT (7/15)
Length of Visible Light 15h 39m
Length of Day
14h 37m
Waxing Gibbous, 98% of the Moon is Illuminated
Jul 15
Waxing Gibbous
Jul 16
Full
Jul 24
Last Quarter
Jul 31
New
Aug 7
First Quarter

Hourly Weather History & Observations

Time (EDT) Temp. Heat Index Dew Point Humidity Pressure Visibility Wind Dir Wind Speed Gust Speed Precip Events Conditions
12:19 AM 79.5 °F - 69.8 °F 72% 30.06 in 10.0 mi Calm Calm - N/A   Clear
12:39 AM 77.9 °F - 71.1 °F 79% 30.07 in 10.0 mi Calm Calm - N/A   Clear
12:59 AM 77.5 °F - 70.7 °F 79% 30.08 in 10.0 mi Calm Calm - N/A   Clear
1:19 AM 77.2 °F - 70.0 °F 78% 30.08 in 10.0 mi Calm Calm - N/A   Clear
1:39 AM 77.4 °F - 68.0 °F 73% 30.08 in 10.0 mi Calm Calm - N/A   Clear
1:59 AM 77.9 °F - 67.3 °F 70% 30.08 in 10.0 mi North 3.5 mph - N/A   Clear
2:19 AM 75.6 °F - 67.5 °F 76% 30.08 in 10.0 mi Calm Calm - N/A   Clear
2:39 AM 74.1 °F - 68.0 °F 81% 30.08 in 10.0 mi Calm Calm - N/A   Clear
2:59 AM 73.8 °F - 68.4 °F 83% 30.08 in 10.0 mi Calm Calm - N/A   Clear
3:19 AM 73.8 °F - 68.5 °F 84% 30.08 in 10.0 mi Calm Calm - N/A   Clear
3:39 AM 72.5 °F - 68.4 °F 87% 30.07 in 10.0 mi Calm Calm - N/A   Clear
3:59 AM 72.7 °F - 68.4 °F 86% 30.08 in 10.0 mi Calm Calm - N/A   Clear
4:19 AM 71.8 °F - 67.6 °F 87% 30.08 in 10.0 mi Calm Calm - N/A   Clear
4:39 AM 73.4 °F - 68.2 °F 84% 30.08 in 10.0 mi Calm Calm - N/A   Clear
4:59 AM 72.9 °F - 67.5 °F 83% 30.08 in 10.0 mi North 3.5 mph - N/A   Clear
5:19 AM 73.0 °F - 66.7 °F 81% 30.08 in 10.0 mi Calm Calm - N/A   Clear
5:39 AM 73.4 °F - 65.7 °F 77% 30.09 in 10.0 mi Calm Calm - N/A   Clear
5:41 AM 73.2 °F - 65.7 °F 77% 30.09 in 10.0 mi Calm Calm - N/A   Clear
5:50 AM 73.4 °F - 64.4 °F 73% 30.10 in 10.0 mi Calm Calm - N/A   Clear
6:50 AM 71.6 °F - 66.2 °F 83% 30.11 in 10.0 mi North 6.9 mph - N/A   Clear
7:50 AM 75.2 °F - 66.2 °F 73% 30.13 in 10.0 mi NE 5.8 mph - N/A   Clear
8:50 AM 80.6 °F 82.3 °F 64.4 °F 58% 30.14 in 10.0 mi ENE 6.9 mph - N/A   Clear
9:45 AM 80.6 °F 81.8 °F 62.6 °F 54% 30.14 in 10.0 mi NNE 6.9 mph - N/A   Clear
10:55 AM 84.2 °F 85.0 °F 62.6 °F 48% 30.14 in 10.0 mi NE 4.6 mph - N/A   Scattered Clouds
11:45 AM 84.2 °F 85.0 °F 62.6 °F 48% 30.14 in 10.0 mi Calm Calm - N/A   Scattered Clouds
12:47 PM 86.0 °F 86.6 °F 62.6 °F 45% 30.13 in 10.0 mi SSW 3.5 mph - N/A   Partly Cloudy
1:50 PM 87.8 °F 89.4 °F 64.4 °F 46% 30.11 in 10.0 mi West 4.6 mph - N/A   Partly Cloudy
2:45 PM 87.8 °F 88.5 °F 62.6 °F 43% 30.11 in 10.0 mi West 3.5 mph - N/A   Partly Cloudy
3:50 PM 87.8 °F 86.5 °F 57.2 °F 35% 30.10 in 10.0 mi West 3.5 mph - N/A   Partly Cloudy
4:46 PM 87.8 °F 86.1 °F 55.4 °F 33% 30.09 in 10.0 mi Calm Calm - N/A   Clear
5:47 PM 87.8 °F 86.5 °F 57.2 °F 35% 30.08 in 10.0 mi Calm Calm - N/A   Clear
6:50 PM 87.8 °F 87.1 °F 59.0 °F 38% 30.07 in 10.0 mi Calm Calm - N/A   Partly Cloudy
7:50 PM 84.2 °F 85.6 °F 64.4 °F 51% 30.08 in 10.0 mi Calm Calm - N/A   Scattered Clouds
8:50 PM 78.8 °F - 66.2 °F 65% 30.09 in 10.0 mi East 3.5 mph - N/A   Scattered Clouds
9:45 PM 77.0 °F - 64.4 °F 65% 30.11 in 10.0 mi Calm Calm - N/A   Clear
10:19 PM 77.5 °F - 64.0 °F 63% 30.11 in 10.0 mi Calm Calm - N/A   Clear
10:39 PM 75.6 °F - 65.5 °F 71% 30.11 in 10.0 mi Calm Calm - N/A   Clear
10:59 PM 76.1 °F - 65.1 °F 69% 30.11 in 10.0 mi Calm Calm - N/A   Clear
11:19 PM 75.7 °F - 66.2 °F 72% 30.11 in 10.0 mi Calm Calm - N/A   Clear
11:39 PM 75.2 °F - 66.2 °F 73% 30.11 in 10.0 mi Calm Calm - N/A   Clear
11:59 PM 75.4 °F - 65.7 °F 72% 30.11 in 10.0 mi ESE 4.6 mph - N/A   Clear